San Antonio Stinson, TX

9:21 AM CDT on June 27, 2017 (GMT -0500)
Stinson Municipal

Weather History for KSSF - February, 2012

Change the Weather History Date:

Friday, February 17, 2012

  Actual Average Record
Temperature  
Mean Temperature 54 °F -  
Max Temperature 57 °F 67 °F 82 °F (2000)
Min Temperature 51 °F 46 °F 33 °F (2003)
Degree Days  
Heating Degree Days 11    
Growing Degree Days 4 (Base 50)    
Moisture  
Dew Point 53 °F    
Average Humidity 96    
Maximum Humidity 100    
Minimum Humidity 77    
Precipitation  
Precipitation 0.53 in - - ()
Sea Level Pressure  
Sea Level Pressure 29.98 in    
Wind  
Wind Speed 9 mph (NE)    
Max Wind Speed 12 mph    
Max Gust Speed 20 mph    
Visibility 3 miles    
Events Rain , Thunderstorm    
Averages and records for this station are not official NWS values.
T = Trace of Precipitation, MM = Missing Value Source: NWS Daily Summary

Daily Weather History Graph

Daily Weather History Graph

Search for Another Location

Airport or City:

Trip Planner

Search our weather history database for the weather conditions in past years. The results will help you decide how hot, cold, wet, or windy it might be!

Date:

Astronomy

Feb. 17, 2012 Rise Set
Actual Time 7:11 AM CST 6:24 PM CST
Civil Twilight 6:47 AM CST 6:48 PM CST
Nautical Twilight 6:19 AM CST 7:16 PM CST
Astronomical Twilight 5:51 AM CST 7:44 PM CST
Moon 3:50 AM CST (2/17) 2:32 PM CST (2/17)
Length of Visible Light 12h 01m
Length of Day
11h 12m
Waning Crescent, 19% of the Moon is Illuminated
Feb 17
Waning Crescent
Feb 21
New
Feb 29
First Quarter
Mar 8
Full
Mar 14
Last Quarter

Hourly Weather History & Observations

Time (CST) Temp. Dew Point Humidity Pressure Visibility Wind Dir Wind Speed Gust Speed Precip Events Conditions
12:17 AM 55.4 °F 48.2 °F 77% 30.08 in 8.0 mi NE 11.5 mph 19.6 mph N/A   Overcast
12:53 AM 55.0 °F 48.0 °F 77% 30.05 in 8.0 mi ENE 11.5 mph - N/A   Overcast
1:53 AM 54.0 °F 48.9 °F 83% 30.04 in 8.0 mi NE 11.5 mph 19.6 mph N/A   Overcast
2:45 AM 53.6 °F 48.2 °F 82% 30.03 in 7.0 mi ENE 10.4 mph 19.6 mph N/A   Overcast
2:53 AM 54.0 °F 48.9 °F 83% 30.03 in 7.0 mi ENE 11.5 mph - N/A   Overcast
3:53 AM 53.1 °F 50.0 °F 89% 30.03 in 3.0 mi NE 6.9 mph - 0.00 in Rain Light Rain
4:12 AM 53.6 °F 50.0 °F 88% 30.02 in 3.0 mi NNE 10.4 mph - 0.00 in Rain Light Rain
4:53 AM 53.1 °F 51.1 °F 93% 30.01 in 3.0 mi NNE 11.5 mph - 0.00 in   Overcast
5:02 AM 53.6 °F 51.8 °F 94% 30.02 in 2.0 mi NNE 8.1 mph - 0.00 in Rain Light Rain
5:19 AM 53.6 °F 51.8 °F 94% 30.01 in 1.8 mi North 9.2 mph - 0.01 in Rain Rain
5:29 AM 53.6 °F 51.8 °F 94% 30.01 in 2.5 mi NNE 11.5 mph - 0.01 in Rain Light Rain
5:53 AM 52.0 °F 52.0 °F 100% 30.02 in 2.0 mi North 8.1 mph - 0.03 in Rain Rain
6:21 AM 51.8 °F 51.8 °F 100% 30.03 in 3.0 mi NE 5.8 mph - 0.01 in Rain Light Rain
6:53 AM 52.0 °F 51.1 °F 97% 30.03 in 4.0 mi NE 10.4 mph - 0.01 in Rain Light Rain
7:53 AM 52.0 °F 52.0 °F 100% 30.04 in 1.8 mi NE 10.4 mph - 0.00 in Rain Light Rain
8:18 AM 53.6 °F 51.8 °F 94% 30.06 in 2.5 mi NE 6.9 mph - 0.00 in   Overcast
8:53 AM 53.1 °F 52.0 °F 96% 30.06 in 1.5 mi NE 9.2 mph - 0.00 in   Overcast
9:27 AM 53.6 °F 51.8 °F 94% 30.06 in 2.0 mi NNE 6.9 mph - N/A   Overcast
9:53 AM 53.1 °F 53.1 °F 100% 30.06 in 2.5 mi NE 6.9 mph - N/A   Overcast
10:21 AM 53.6 °F 53.6 °F 100% 30.06 in 3.0 mi NE 9.2 mph - 0.00 in   Overcast
10:29 AM 53.6 °F 53.6 °F 100% 30.05 in 2.0 mi NE 10.4 mph - 0.00 in   Overcast
10:53 AM 54.0 °F 53.1 °F 97% 30.05 in 1.5 mi NE 8.1 mph - 0.00 in   Overcast
11:31 AM 53.6 °F 53.6 °F 100% 30.04 in 2.0 mi NE 10.4 mph - 0.00 in Rain Light Rain
11:53 AM 55.0 °F 54.0 °F 96% 30.03 in 2.0 mi ENE 11.5 mph - 0.00 in   Overcast
12:06 PM 55.4 °F 53.6 °F 94% 30.03 in 1.8 mi NNE 10.4 mph - 0.00 in Rain Light Rain
12:36 PM 55.4 °F 53.6 °F 94% 30.02 in 2.0 mi NE 9.2 mph - 0.00 in Rain Light Rain
12:49 PM 55.4 °F 53.6 °F 94% 30.01 in 1.2 mi NE 9.2 mph - 0.02 in Rain Light Rain
12:53 PM 55.0 °F 54.0 °F 96% 30.01 in 1.5 mi NE 9.2 mph - 0.02 in Rain Light Rain
1:02 PM 55.4 °F 53.6 °F 94% 30.01 in 2.5 mi NE 11.5 mph - 0.00 in Rain Light Rain
1:17 PM 53.6 °F 53.6 °F 100% 30.00 in 0.8 mi NNE 6.9 mph - 0.09 in Rain Heavy Rain
1:41 PM 55.4 °F 53.6 °F 94% 29.99 in 1.8 mi NE 8.1 mph - 0.22 in Rain Light Rain
1:53 PM 55.0 °F 54.0 °F 96% 29.99 in 1.8 mi NNE 5.8 mph - 0.22 in Rain Light Rain
2:09 PM 55.4 °F 53.6 °F 94% 29.97 in 2.5 mi NE 8.1 mph - 0.01 in Rain Light Rain
3:00 PM 55.4 °F 55.4 °F 100% 29.95 in 1.5 mi NE 9.2 mph - 0.00 in Rain Light Rain
3:02 PM 55.4 °F 55.4 °F 100% 29.95 in 1.5 mi NE 9.2 mph - 0.00 in Rain Light Rain
3:04 PM 55.4 °F 55.4 °F 100% 29.95 in 1.2 mi NE 6.9 mph - 0.01 in Rain , Thunderstorm Light Rain
3:09 PM 55.4 °F 55.4 °F 100% 29.96 in 1.2 mi NE 6.9 mph - 0.01 in Rain , Thunderstorm Rain
3:24 PM 55.4 °F 55.4 °F 100% 29.95 in 1.5 mi NNE 8.1 mph - 0.07 in Rain Rain
3:36 PM 55.4 °F 55.4 °F 100% 29.95 in 2.5 mi NNE 6.9 mph - 0.09 in Rain Rain
3:45 PM 55.4 °F 55.4 °F 100% 29.94 in 1.5 mi NE 9.2 mph - 0.15 in Rain Heavy Rain
3:53 PM 55.9 °F 55.0 °F 97% 29.94 in 1.5 mi NE 6.9 mph - 0.18 in Rain Rain
4:53 PM 55.9 °F 55.0 °F 97% 29.94 in 7.0 mi NE 11.5 mph - 0.00 in Rain Light Rain
5:53 PM 55.9 °F 55.0 °F 97% 29.93 in 4.0 mi ENE 9.2 mph - 0.00 in Rain Light Rain
6:53 PM 55.9 °F 55.0 °F 97% 29.94 in 3.0 mi ENE 8.1 mph - 0.01 in Rain Light Rain
7:53 PM 55.9 °F 55.0 °F 97% 29.93 in 5.0 mi NE 6.9 mph - 0.00 in   Overcast
8:08 PM 55.4 °F 55.4 °F 100% 29.93 in 1.8 mi ENE 6.9 mph - N/A   Overcast
8:26 PM 55.4 °F 55.4 °F 100% 29.92 in 2.0 mi NE 8.1 mph - N/A   Overcast
8:53 PM 55.9 °F 55.9 °F 100% 29.90 in 1.8 mi NE 8.1 mph - N/A   Overcast
9:00 PM 55.4 °F 55.4 °F 100% 29.90 in 2.0 mi ENE 9.2 mph - N/A   Overcast
9:36 PM 55.4 °F 55.4 °F 100% 29.89 in 3.0 mi ENE 5.8 mph - N/A   Overcast
9:53 PM 55.9 °F 55.9 °F 100% 29.89 in 2.0 mi NE 9.2 mph - N/A   Overcast
10:21 PM 55.4 °F 55.4 °F 100% 29.89 in 3.0 mi NE 8.1 mph - 0.01 in Rain Light Rain
10:50 PM 57.2 °F 55.4 °F 94% 29.88 in 2.5 mi ENE 6.9 mph - 0.04 in Rain Light Rain
10:53 PM 57.0 °F 55.9 °F 96% 29.88 in 2.5 mi NE 6.9 mph - 0.04 in Rain Light Rain
11:48 PM 57.2 °F 57.2 °F 100% 29.84 in 2.5 mi NE 4.6 mph - 0.02 in Rain Light Rain
11:53 PM 57.0 °F 57.0 °F 100% 29.83 in 2.5 mi NE 4.6 mph - 0.02 in Rain Light Rain